Temp
3 2 2 2 2 1 1 1 0 -1 -2 -2 -3 -3 -2 -3 -3 -3 -3 -4 -5 -5 -4 -4 -3 -2 -2 -2 -2 -1 -1 0 2 4 5 7 10 11 12 13 14 13 15
3 2 2 2 2 1 1 1 -0 -1 -2 -2 -3 -3 -3 -3 -3 -3 -4 -5 -5 -5 -5 -4 -3 -3 -2 -2 -2 -2 -1 0 1 4 4 6 11 12 13 15 14 14 14
3 2 2 2 2 1 1 0 -0 -1 -2 -2 -3 -3 -3 -3 -3 -3 -4 -4 -5 -5 -5 -5 -3 -3 -2 -2 -2 -2 -1 -0 1 3 3 4 8 10 11 13 12 12 14
3 3 2 2 1 1 1 0 -0 -1 -2 -3 -3 -4 -4 -4 -3 -3 -4 -5 -5 -5 -5 -5 -4 -3 -3 -2 -2 -2 -2 -1 -0 1 1 2 5 6 6 12 13 13 13
3 3 2 2 1 1 1 0 -1 -1 -2 -3 -3 -4 -4 -4 -4 -4 -4 -5 -5 -5 -5 -5 -4 -3 -3 -3 -2 -2 -2 -1 -1 -0 0 1 1 1 1 5 11 10 11
3 3 2 2 1 1 1 0 -1 -1 -2 -3 -4 -5 -5 -4 -4 -4 -5 -5 -5 -5 -5 -5 -4 -4 -3 -3 -2 -2 -2 -2 -2 -1 -1 -1 -1 -0 1 5 9 12 10
3 2 2 1 1 1 1 0 -1 -2 -2 -3 -4 -4 -5 -5 -4 -5 -4 -5 -5 -5 -5 -5 -5 -4 -4 -3 -3 -3 -2 -2 -2 -2 -2 -2 -1 0 2 5 8 6 5
3 2 2 1 1 1 0 -0 -1 -2 -3 -4 -5 -5 -5 -5 -4 -4 -4 -5 -5 -5 -5 -5 -5 -5 -4 -4 -4 -3 -3 -3 -2 -2 -2 -2 -1 2 3 4 5 4 5
2 2 2 1 1 1 -0 -1 -1 -2 -3 -4 -5 -6 -5 -5 -5 -4 -4 -5 -5 -5 -5 -5 -5 -5 -5 -5 -4 -4 -3 -3 -2 -2 -2 -1 0 3 4 6 4 4 3
2 2 1 1 0 0 -0 -1 -2 -3 -4 -4 -5 -5 -5 -5 -6 -5 -5 -5 -5 -6 -6 -6 -6 -6 -6 -5 -5 -5 -4 -4 -3 -3 -2 -1 -1 -0 0 0 -0 0 1
2 2 1 1 0 -0 -1 -1 -2 -3 -3 -4 -4 -5 -4 -4 -5 -5 -5 -5 -6 -6 -6 -6 -6 -6 -6 -6 -6 -5 -5 -5 -4 -4 -4 -3 -2 -2 -2 -1 -1 -2 -1
2 2 1 0 -0 -1 -1 -2 -2 -2 -3 -4 -4 -4 -4 -4 -4 -4 -5 -5 -5 -6 -7 -6 -6 -6 -6 -6 -6 -5 -5 -5 -5 -5 -5 -4 -4 -3 -2 -2 -2 -2 -1
2 1 1 0 -0 -1 -1 -1 -2 -3 -3 -5 -5 -5 -4 -4 -4 -4 -4 -5 -5 -6 -6 -7 -6 -5 -5 -5 -6 -5 -6 -6 -6 -5 -5 -5 -5 -4 -3 -2 -2 -2 -2
2 1 1 1 -1 -1 -1 -1 -2 -3 -3 -5 -5 -5 -5 -5 -5 -4 -4 -4 -4 -4 -5 -5 -5 -5 -6 -6 -6 -6 -6 -6 -6 -6 -6 -5 -5 -4 -4 -4 -4 -3 -3
2 1 1 0 -0 -1 -2 -2 -2 -3 -4 -4 -5 -5 -5 -5 -5 -5 -5 -5 -5 -5 -5 -5 -5 -6 -7 -7 -7 -7 -7 -7 -6 -6 -6 -6 -5 -5 -5 -4 -4 -4 -4
2 1 1 0 -0 -1 -1 -3 -4 -4 -4 -5 -5 -5 -5 -4 -4 -4 -5 -4 -4 -4 -5 -7 -8 -8 -8 -8 -8 -8 -7 -7 -7 -7 -6 -6 -6 -6 -6 -5 -5 -5 -5
3 2 1 1 -0 -1 -2 -2 -3 -4 -4 -5 -5 -5 -5 -5 -4 -4 -5 -4 -4 -3 -6 -7 -8 -8 -8 -8 -8 -8 -8 -7 -7 -7 -7 -7 -7 -6 -6 -6 -6 -5 -5
4 3 2 1 1 -0 -1 -2 -2 -3 -4 -4 -4 -5 -5 -5 -4 -4 -4 -3 -4 -5 -6 -7 -7 -7 -7 -7 -7 -7 -7 -7 -7 -7 -7 -7 -7 -7 -7 -7 -7 -6 -6
4 3 2 2 1 0 -1 -2 -2 -3 -4 -4 -4 -5 -5 -5 -5 -5 -4 -3 -5 -6 -6 -7 -6 -6 -6 -7 -7 -6 -6 -7 -7 -6 -6 -6 -7 -7 -7 -7 -7 -7 -7
4 4 3 2 1 -0 -1 -1 -2 -3 -3 -3 -4 -4 -5 -5 -4 -4 -5 -5 -5 -6 -6 -6 -6 -6 -6 -6 -6 -6 -5 -5 -6 -6 -6 -6 -6 -6 -7 -7 -7 -8 -7
4 3 3 2 1 1 -0 -1 -2 -3 -3 -3 -3 -3 -4 -4 -5 -5 -4 -5 -5 -5 -5 -5 -5 -5 -6 -6 -6 -6 -6 -6 -6 -6 -6 -6 -6 -6 -6 -6 -6 -7 -7
4 3 2 2 1 0 -0 -1 -2 -2 -2 -3 -3 -3 -4 -4 -4 -4 -4 -4 -4 -4 -5 -5 -4 -5 -5 -5 -5 -5 -5 -5 -6 -6 -6 -6 -6 -6 -6 -6 -7 -7 -7
4 3 2 2 1 1 -0 -1 -1 -2 -2 -2 -2 -3 -3 -3 -3 -3 -3 -3 -4 -4 -4 -4 -4 -4 -5 -5 -5 -5 -5 -5 -5 -5 -5 -6 -6 -6 -6 -6 -7 -7 -8
4 3 3 2 1 1 -0 -1 -1 -1 -2 -2 -2 -3 -3 -3 -3 -3 -3 -3 -3 -4 -4 -4 -4 -4 -4 -5 -5 -5 -5 -5 -5 -5 -5 -6 -6 -7 -7 -7 -8 -8 -8
4 4 3 2 2 1 0 -0 -1 -1 -1 -1 -2 -2 -2 -3 -3 -3 -3 -3 -3 -3 -3 -4 -4 -4 -4 -4 -5 -5 -5 -5 -6 -6 -6 -6 -6 -6 -7 -7 -8 -8 -9
4 4 3 3 2 1 1 0 0 -0 -1 -1 -1 -1 -2 -2 -2 -2 -2 -3 -3 -3 -4 -3 -4 -4 -4 -4 -5 -5 -5 -6 -6 -6 -6 -6 -6 -7 -7 -7 -8 -8 -9
Height
866 864 862 859 858 856 853 849 845 842 836 830 824 818 812 806 800 794 789 782 775 768 759 751 743 733 725 717 711 709 706 705 704 702 702 701 706 713 724 730 737 744 753
867 865 863 862 860 858 855 852 848 844 839 834 826 821 815 809 804 798 792 786 779 771 763 754 747 738 731 722 714 710 706 705 707 705 703 703 707 714 714 720 730 740 751
868 866 864 863 862 860 858 855 851 847 842 837 829 824 818 812 807 803 798 791 783 776 768 761 753 745 736 728 720 714 711 708 705 707 709 706 708 711 707 713 725 737 749
869 867 866 865 865 863 861 857 854 850 845 840 833 828 822 817 811 807 802 796 788 780 773 766 760 753 745 737 730 723 719 714 713 711 715 712 713 716 712 715 727 738 749
870 868 868 868 867 865 863 860 857 853 849 845 838 831 827 822 817 811 806 801 793 786 779 772 767 761 754 747 738 732 726 724 722 721 720 718 718 721 722 722 727 736 750
871 870 870 870 869 867 865 863 860 857 853 848 842 836 832 828 824 818 812 806 800 792 787 780 774 767 761 755 749 743 739 732 731 731 732 734 736 737 728 723 729 740 754
872 872 872 872 871 870 868 866 863 859 856 851 846 841 837 835 830 824 818 813 808 802 796 789 783 776 770 764 759 753 748 745 746 746 747 742 745 737 733 730 736 743 754
873 874 874 874 873 873 871 868 866 864 860 855 852 847 843 840 836 830 824 818 815 811 806 800 793 787 780 774 768 764 760 757 755 755 755 755 746 741 738 742 746 752 760
875 876 877 877 876 875 873 872 870 868 864 860 856 853 848 844 841 837 830 823 819 816 813 809 801 795 790 783 777 774 771 769 767 765 762 756 749 747 749 750 753 757 763
876 878 879 879 879 877 877 875 874 871 869 865 860 857 854 849 847 842 837 832 826 823 820 817 813 807 799 792 786 784 778 781 776 770 763 759 758 759 758 759 763 766 770
878 879 881 881 880 880 879 878 877 874 872 869 866 863 859 855 852 848 844 839 835 831 827 823 821 816 809 802 798 793 795 793 789 783 779 777 776 774 776 777 778 778 780
878 880 882 883 883 882 881 880 879 877 875 873 871 868 865 862 858 855 851 847 844 839 837 834 830 824 817 813 809 807 803 801 799 795 793 793 792 792 792 791 791 791 791
879 881 884 885 884 883 882 881 881 880 879 878 876 874 872 869 865 862 858 854 850 846 845 842 838 833 828 823 820 815 812 814 809 806 811 812 809 809 807 805 805 806 804
880 883 884 884 886 885 884 884 884 883 882 882 881 880 879 875 871 868 865 860 857 854 851 848 846 842 836 834 831 829 827 826 822 825 828 824 822 816 814 816 814 814 811
879 882 885 887 886 885 887 889 889 889 889 887 886 884 882 880 880 877 872 868 865 862 857 853 848 846 846 846 845 842 840 839 837 836 834 832 829 825 826 827 825 824 822
878 881 884 885 886 889 891 891 892 891 891 890 890 890 888 887 884 882 878 875 872 869 865 863 862 861 859 858 856 854 851 849 848 845 844 842 839 840 841 839 837 833 836
877 880 883 886 887 889 890 890 891 893 893 894 894 892 891 889 889 886 883 881 878 874 871 872 870 870 869 869 866 865 863 861 859 855 853 852 852 851 847 846 848 849 847
877 879 880 883 886 888 889 890 892 893 894 895 894 893 893 892 890 889 887 886 883 882 880 878 879 880 879 877 876 874 873 870 868 867 864 864 862 862 860 860 860 860 858
874 876 878 881 884 887 888 891 892 892 893 893 894 895 894 894 893 892 891 889 888 888 888 887 886 885 884 884 884 882 880 878 876 874 873 871 869 868 869 870 869 867 866
872 875 878 881 883 885 888 889 891 893 893 893 893 894 895 896 895 894 894 893 892 893 893 893 893 893 892 890 888 885 882 882 882 881 880 879 877 876 876 876 876 874 874
870 873 876 879 881 883 885 888 891 892 893 895 895 895 896 897 897 897 896 895 895 895 895 895 896 896 895 895 893 890 890 892 889 887 886 886 885 882 882 882 881 880 879
868 871 874 876 879 882 885 887 890 892 893 894 894 895 896 896 896 896 895 896 897 897 897 896 896 896 896 895 895 895 893 894 894 892 890 890 890 888 888 887 886 885 885
865 868 871 875 877 881 883 885 888 889 891 892 892 893 894 893 893 894 895 896 896 897 897 897 897 897 896 896 896 896 896 896 894 895 895 896 895 893 892 891 889 889 889
862 865 868 871 874 876 878 880 883 886 888 888 889 891 892 892 893 893 894 895 895 895 895 896 897 897 897 897 897 897 897 896 896 896 896 896 896 896 896 894 894 895 895
857 860 863 865 868 870 874 877 879 881 882 884 886 888 889 890 890 891 891 891 892 892 893 894 894 895 895 896 896 897 897 897 897 897 897 897 896 895 895 894 895 895 895
852 855 857 860 863 866 868 870 872 874 876 879 881 883 885 886 887 887 886 887 888 889 891 891 892 892 893 893 894 895 896 896 896 896 896 896 896 895 895 894 894 894 894
Wind_Speed
12 14 15 15 15 15 18 18 17 20 20 29 24 25 28 29 30 28 28 29 30 30 33 32 33 34 29 28 23 19 15 12 2 5 8 15 21 16 13 22 27 37 57
12 13 15 14 15 15 17 18 19 21 19 27 24 26 27 29 30 28 29 31 31 30 32 33 34 34 31 28 27 23 22 20 4 2 13 19 14 4 5 26 33 37 46
12 12 14 13 14 15 17 17 19 23 21 27 25 25 29 30 28 27 27 29 32 31 32 32 34 35 35 31 30 27 26 23 21 13 11 18 16 10 11 30 36 37 46
11 12 13 13 13 15 16 16 18 22 25 28 27 25 29 29 29 27 28 29 32 33 34 34 36 35 35 33 31 30 27 25 24 21 15 14 17 13 19 21 30 37 37
11 13 13 13 13 14 15 15 16 20 24 28 29 29 30 31 31 30 32 30 32 33 38 38 36 34 33 36 34 35 33 27 25 20 20 16 18 13 10 11 26 33 27
12 13 12 12 13 14 15 16 16 18 23 27 29 30 33 31 28 27 30 32 33 34 36 37 38 39 36 37 40 44 42 32 31 25 22 16 18 12 13 15 21 26 6
13 13 12 12 13 14 15 17 16 18 21 26 27 28 30 32 29 27 30 34 33 34 35 38 36 40 37 35 36 40 44 46 39 29 24 26 13 17 18 23 18 18 10
14 14 12 11 13 14 15 17 16 18 22 25 27 26 29 31 31 29 29 32 32 34 34 38 37 39 39 35 35 37 38 42 42 38 35 32 32 21 25 25 26 24 23
14 14 11 12 13 13 16 17 17 17 21 24 23 24 27 30 31 31 31 32 32 33 32 38 40 39 40 37 38 34 37 40 39 37 40 46 51 37 27 27 25 14 10
14 13 12 12 13 14 15 17 17 17 19 22 25 24 25 27 28 29 30 31 31 30 32 34 40 40 40 41 40 34 37 34 36 41 47 51 51 53 48 41 32 23 10
15 13 13 13 12 10 12 13 15 17 18 22 25 26 28 27 27 27 28 31 27 26 30 32 35 37 43 41 41 41 34 31 36 38 39 40 42 46 47 47 44 34 23
15 15 14 11 11 10 11 13 15 17 20 21 23 26 27 27 28 27 26 27 28 30 29 31 30 33 37 45 43 42 41 36 35 37 38 38 38 38 41 43 46 48 47
17 16 14 12 12 12 13 14 17 18 21 22 23 25 25 27 28 26 24 25 27 30 28 27 33 38 41 44 44 45 43 37 36 38 34 32 33 34 38 40 40 39 48
19 18 13 12 14 14 15 16 18 18 20 21 21 23 24 27 28 24 24 26 27 30 31 34 36 38 41 40 42 42 40 37 35 32 29 31 33 39 40 34 34 30 38
20 18 14 13 12 14 16 16 18 19 18 18 19 20 22 24 22 19 20 24 25 28 32 36 40 40 39 37 37 37 37 36 35 33 33 33 34 36 36 35 34 34 36
21 19 16 14 12 12 14 16 15 16 17 18 16 17 17 15 14 17 20 21 25 29 33 34 33 32 31 30 31 32 35 36 33 32 32 33 33 32 30 32 33 35 33
21 19 18 15 13 12 11 10 13 12 13 15 16 15 14 13 12 15 19 22 24 28 34 31 30 30 29 29 30 30 31 31 32 35 34 31 30 31 32 32 31 29 31
20 18 18 17 14 12 10 9 9 10 11 11 11 13 14 12 12 12 14 19 25 27 27 27 27 26 27 28 29 30 31 33 34 33 34 32 30 28 29 30 29 27 27
21 22 19 16 14 11 11 10 9 11 10 9 9 8 9 10 11 13 14 18 20 21 21 22 22 22 22 23 24 26 28 30 32 34 34 35 33 31 30 29 29 30 27
22 21 19 18 16 14 12 13 13 11 9 7 6 8 7 6 8 10 12 13 15 15 16 17 17 18 19 20 21 23 25 27 28 29 30 30 32 32 31 29 29 26 26
26 24 21 19 18 17 15 15 13 13 10 7 5 7 5 3 6 5 7 8 9 10 11 12 13 14 15 16 17 19 21 21 22 23 24 24 26 29 28 28 28 28 27
26 25 24 21 18 18 16 14 14 13 11 10 8 9 8 6 4 3 3 4 6 6 7 8 9 11 12 13 13 13 15 16 17 17 19 19 20 21 22 24 24 24 24
27 26 24 22 20 18 17 16 15 15 14 13 11 10 11 10 8 6 4 4 4 5 5 5 6 7 8 8 9 10 10 11 12 12 13 13 14 15 17 18 19 20 20
28 27 26 24 22 22 22 21 19 17 16 15 15 13 13 13 12 10 8 7 7 6 7 7 6 6 6 6 6 6 6 7 7 7 8 9 9 10 10 12 13 12 13
30 29 28 28 27 26 24 23 22 22 21 19 18 17 16 15 15 14 13 13 12 12 11 10 10 9 9 8 7 6 5 4 4 3 3 3 5 6 6 7 7 8 8
32 31 30 29 29 28 27 27 26 25 25 23 22 20 19 19 18 18 17 17 17 16 15 15 15 14 13 12 11 10 9 8 7 6 4 3 2 1 1 2 3 4 5
Wind_Direction
73 68 57 50 43 40 34 31 26 20 16 16 21 27 28 23 16 10 11 11 5 4 3 358 357 359 359 360 8 15 22 27 8 16 36 96 94 119 159 201 193 180 185
74 71 59 53 45 42 40 38 38 27 22 17 22 29 28 25 20 17 14 13 6 6 4 2 2 4 7 11 12 15 20 20 4 24 39 71 86 84 209 209 202 199 189
77 78 63 55 49 48 45 44 36 28 29 20 25 29 28 24 22 19 17 13 10 12 10 7 7 8 10 13 17 20 24 24 33 57 52 71 85 72 89 148 161 168 181
87 82 68 57 55 51 48 48 40 33 33 27 32 33 30 24 24 20 18 17 14 16 17 17 15 16 15 18 23 26 27 30 34 46 48 49 72 58 64 125 134 150 165
99 86 73 65 58 54 51 49 47 39 34 30 35 40 36 28 26 25 30 21 20 18 21 22 19 25 29 31 33 32 34 35 40 42 44 47 37 25 13 54 109 121 139
105 94 80 73 60 56 52 49 55 47 36 32 37 43 37 29 27 28 33 28 25 23 21 20 22 26 32 40 46 49 46 39 41 42 39 46 34 24 33 50 99 132 128
110 100 85 75 66 59 57 54 64 53 37 36 40 44 41 30 29 34 37 37 32 28 26 23 23 26 32 37 43 48 49 50 48 47 44 37 32 45 70 68 96 97 95
112 103 87 79 71 64 62 60 68 54 41 36 40 44 46 33 33 36 43 40 37 35 34 29 28 28 30 36 41 43 44 45 43 46 50 49 55 71 77 87 90 99 95
115 106 95 82 76 71 68 67 67 58 47 39 40 45 45 40 28 34 45 39 34 35 36 35 33 33 34 40 43 39 42 41 44 47 49 53 67 74 82 95 63 75 70
120 109 102 95 82 80 75 74 66 61 54 48 51 52 51 44 33 30 41 44 37 32 35 35 35 36 39 42 43 38 40 29 35 40 45 51 55 59 64 67 59 53 58
123 121 106 102 86 82 79 74 68 67 66 61 60 55 52 49 44 37 37 49 43 38 36 32 32 37 44 44 46 43 42 43 43 46 44 45 48 52 55 57 60 56 57
129 118 119 103 82 84 83 82 80 75 73 68 64 58 53 51 49 46 47 51 56 51 41 41 39 42 46 50 48 50 51 47 47 46 44 39 41 46 54 60 59 64 65
133 128 119 101 89 90 91 86 86 78 74 70 66 59 52 49 48 48 52 55 57 62 56 51 55 58 56 56 50 51 49 44 46 46 43 40 43 51 61 65 68 63 64
143 139 128 116 101 94 91 88 84 79 77 75 70 62 54 48 41 42 51 57 63 65 65 64 63 60 58 52 50 50 47 44 47 45 43 47 51 53 52 50 52 54 59
156 151 140 126 124 113 97 84 80 74 70 76 75 68 57 52 45 42 46 53 60 63 64 62 58 50 49 46 45 44 44 45 43 45 42 46 47 50 48 49 53 55 56
162 164 157 152 142 122 110 104 93 86 79 77 77 70 68 69 61 59 60 62 66 66 64 56 52 50 46 43 43 43 46 45 41 45 46 46 47 48 49 50 53 55 53
173 172 172 169 161 146 134 128 124 110 96 84 77 74 75 71 65 66 74 75 68 67 67 61 55 54 53 53 54 52 51 52 57 56 53 48 49 49 49 48 48 52 54
178 181 182 184 179 169 161 147 133 128 117 107 94 84 76 74 75 79 81 82 75 72 70 67 66 67 63 63 63 64 65 65 63 61 62 59 56 54 53 51 50 50 52
185 185 187 185 184 179 173 167 151 141 134 123 118 104 93 81 80 81 76 79 82 81 82 82 78 74 73 73 72 72 71 70 69 67 66 68 65 62 60 59 58 57 55
192 192 190 187 184 182 179 175 165 161 166 160 153 143 133 107 93 86 83 83 85 86 86 85 85 85 84 82 80 79 76 73 71 71 69 67 71 70 67 64 62 57 55
193 192 194 194 196 196 194 188 179 180 187 180 187 177 165 139 108 101 96 98 94 93 93 93 89 85 83 83 86 84 83 84 80 77 74 73 71 72 71 71 70 69 65
195 196 194 200 203 202 200 194 192 196 201 201 196 184 188 197 168 153 146 119 109 104 105 104 106 103 99 95 94 93 89 87 85 81 78 74 73 71 71 70 68 67 64
201 200 201 203 208 207 203 204 205 209 214 214 213 205 205 213 215 205 198 181 166 150 144 142 135 127 122 114 110 111 110 101 92 88 87 83 77 74 69 68 64 60 58
206 206 206 206 206 207 208 209 212 218 221 224 224 222 223 225 231 225 221 219 209 206 191 188 186 177 167 161 148 135 123 114 107 101 93 88 87 82 80 77 73 71 68
208 209 212 212 211 213 214 215 217 220 223 229 232 232 233 235 236 236 234 231 226 222 219 216 214 210 205 201 197 188 176 167 157 142 122 111 95 87 77 71 74 68 59
211 214 217 218 220 220 221 221 223 224 226 230 233 237 239 241 244 243 240 236 234 231 229 227 225 224 223 220 217 214 213 212 211 214 211 209 201 169 78 57 46 50 49